Probability
0 0 0 0 0 0 0 0 0 0 0 1 7 15 21 26 31 35 40 46 51 47 37 29 23 22 23 27 34 40 40 41 44 47 49 50 50 46 43 44 45 44 43 44
0 0 0 0 0 0 0 0 0 0 0 1 5 10 13 17 20 25 33 41 43 38 30 24 20 20 19 21 26 31 34 35 36 38 40 41 40 37 34 34 35 35 35 37
0 0 0 0 0 0 0 0 0 0 0 0 2 3 4 6 9 14 22 30 30 25 21 17 13 11 11 12 15 20 23 25 25 26 28 28 26 24 21 19 19 20 22 24
0 0 0 0 0 0 0 0 0 0 0 0 0 0 0 1 3 8 13 17 17 15 13 10 6 4 5 6 9 12 15 16 17 19 20 19 16 13 9 7 7 8 10 11
0 0 0 0 0 0 0 0 0 0 0 0 0 0 0 0 0 2 6 8 7 6 6 4 2 2 4 6 8 10 12 12 13 15 15 13 9 7 4 2 1 2 2 2
0 0 0 0 0 0 0 0 0 0 0 0 0 0 0 0 0 0 1 2 2 1 1 1 2 4 6 6 8 11 13 13 13 12 11 8 6 4 3 1 0 0 0 0
0 0 0 0 0 0 0 0 0 0 0 0 0 0 0 0 0 0 0 0 0 0 0 1 3 5 6 6 8 12 15 14 12 10 8 5 4 3 3 1 0 0 0 0
0 0 0 0 0 0 0 0 0 0 0 0 0 0 0 0 0 0 0 0 0 0 0 1 2 4 5 6 9 14 16 14 10 9 7 5 3 3 2 1 0 0 0 0
0 0 0 0 0 0 0 0 0 0 0 0 0 0 0 0 0 0 0 0 0 0 0 0 1 2 4 5 8 13 16 14 10 10 9 5 3 2 1 1 0 0 0 0
0 0 0 0 0 0 0 0 0 0 0 0 0 0 0 0 0 0 0 0 0 0 0 0 0 1 1 3 5 8 11 11 9 8 8 5 3 2 0 0 0 0 0 0
0 0 0 0 0 0 0 0 0 0 0 0 0 0 0 0 0 0 0 0 0 0 0 0 0 0 0 1 1 2 4 6 6 5 4 4 3 2 1 0 0 0 0 0
0 0 0 0 0 0 0 0 0 0 0 0 0 0 0 0 0 0 0 0 0 0 0 0 0 0 0 0 0 0 0 2 2 2 2 3 3 2 1 0 0 0 0 0
0 0 0 0 0 0 0 0 0 0 0 0 0 0 0 0 0 0 0 0 0 0 0 0 0 0 0 0 0 0 0 0 0 0 1 1 2 2 1 0 0 0 0 0
0 0 0 0 0 0 0 0 0 0 0 0 0 0 0 0 0 0 0 0 0 0 0 0 0 0 0 0 0 0 0 0 0 0 0 0 1 2 2 1 0 0 0 0
0 0 0 0 0 0 0 0 0 0 0 0 0 0 0 0 0 0 0 0 0 0 0 0 0 0 0 0 0 0 0 0 0 0 0 0 1 2 2 1 0 0 0 0
0 0 0 0 0 0 0 0 0 0 0 0 0 0 0 0 0 0 0 0 0 0 0 0 0 0 0 0 0 0 0 0 0 0 0 0 0 1 1 1 0 0 0 0
0 0 0 0 0 0 0 0 0 0 0 0 0 0 0 0 0 0 0 0 0 0 0 0 0 0 0 0 0 0 0 0 0 0 0 0 0 0 0 0 0 0 0 0
0 0 0 0 0 0 0 0 0 0 0 0 0 0 0 0 0 0 0 0 0 0 0 0 0 0 0 0 0 0 0 0 0 0 0 0 0 0 0 0 0 0 0 0
0 0 0 0 0 0 0 0 0 0 0 0 0 0 0 0 0 0 0 0 0 0 0 0 0 0 0 0 0 0 0 0 0 0 0 0 0 0 0 0 0 0 0 0
0 0 0 0 0 0 0 0 0 0 0 0 0 0 0 0 0 0 0 0 0 0 0 0 0 0 0 0 0 0 0 0 0 0 0 0 0 0 0 0 0 0 0 0
0 0 0 0 0 0 0 0 0 0 0 0 0 0 0 0 0 0 0 0 0 0 0 0 0 0 0 0 0 0 0 0 0 0 0 0 0 0 0 0 0 0 0 0
0 0 0 0 0 0 0 0 0 0 0 0 0 0 0 0 0 0 0 0 0 0 0 0 0 0 0 0 0 0 0 0 0 0 0 0 0 0 0 0 0 0 0 0
0 0 0 0 0 0 0 0 0 0 0 0 0 0 0 0 0 0 0 0 0 0 0 0 0 0 0 0 0 0 0 0 0 0 0 0 0 0 0 0 0 0 0 0
0 0 0 0 0 0 0 0 0 0 0 0 0 0 0 0 0 0 0 0 0 0 0 0 0 0 0 0 0 0 0 0 0 0 0 0 0 0 0 0 0 0 0 0
0 0 0 0 0 0 0 0 0 0 0 0 0 0 0 0 0 0 0 0 0 0 0 0 0 0 0 0 0 0 0 0 0 0 0 0 0 0 0 0 0 0 0 0
0 0 0 0 0 0 0 0 0 0 0 0 0 0 0 0 0 0 0 0 0 0 0 0 0 0 0 0 0 0 0 0 0 0 0 0 0 0 0 0 0 0 0 0
Wind_Speed
3 3 2 5 5 3 1 1 3 5 3 4 4 3 5 5 4 3 3 3 3 2 1 2 3 4 5 5 6 5 5 4 3 2 2 2 4 3 3 4 5 5 5 5
4 3 6 4 3 2 1 0 2 4 4 3 3 4 4 4 2 0 1 2 3 2 1 1 2 2 3 4 5 5 5 4 3 3 2 2 2 2 2 2 3 3 4 4
3 6 2 1 2 2 1 2 2 2 4 5 3 5 4 4 4 3 1 2 2 4 4 3 3 3 4 5 5 5 5 4 3 2 1 0 1 2 2 2 2 3 4 4
3 5 2 1 1 4 1 3 2 0 3 3 3 2 5 3 4 2 1 2 3 4 4 4 4 4 5 5 4 4 4 3 2 2 2 2 2 2 2 2 3 4 4 4
5 3 2 1 1 2 2 3 3 2 2 2 4 2 7 4 3 4 4 5 6 6 6 6 6 5 4 4 4 4 3 3 2 2 2 2 2 2 2 2 4 4 4 4
4 3 1 1 2 2 3 6 6 5 5 2 2 0 5 4 5 5 5 5 6 6 6 6 5 4 3 3 3 3 3 3 2 2 2 2 3 2 3 3 3 3 3 4
7 7 5 1 3 5 6 7 6 7 6 4 3 1 7 5 4 4 5 5 4 4 4 5 5 5 5 5 4 4 4 4 3 3 3 3 3 3 3 3 3 4 3 3
2 6 5 2 1 1 1 7 6 3 4 5 4 3 5 4 5 4 3 3 4 4 4 4 5 5 5 5 5 4 5 5 4 4 4 4 4 3 3 3 3 3 3 4
3 5 5 3 2 3 3 2 5 6 2 2 5 5 6 8 11 10 8 8 8 7 7 7 7 6 5 5 5 5 6 6 6 6 5 4 4 4 4 4 3 3 3 4
6 4 5 6 4 4 2 7 5 5 3 3 5 3 4 10 12 11 10 10 9 9 10 9 8 8 7 5 5 4 4 6 6 6 5 5 5 5 4 4 4 4 4 4
3 3 5 5 3 3 2 4 5 4 4 5 4 5 1 3 6 7 8 7 8 9 9 9 9 8 8 7 6 6 5 5 5 6 6 6 6 5 5 4 5 4 4 4
3 5 2 5 4 2 1 3 5 2 3 4 3 5 3 3 4 5 6 7 8 8 8 8 9 10 11 11 9 8 6 6 6 6 6 7 6 5 5 6 5 4 4 4
6 6 3 8 7 4 1 2 3 4 4 4 4 5 2 4 5 6 6 7 7 8 9 10 10 10 10 10 10 9 8 8 8 7 6 7 7 7 7 7 5 4 4 3
7 5 6 6 8 4 3 2 2 5 3 5 7 3 4 6 7 7 7 7 7 8 9 10 10 9 9 9 9 9 10 9 9 8 7 8 9 9 9 7 6 5 4 3
5 4 5 6 5 1 1 3 2 2 4 5 2 3 3 5 6 7 7 7 8 10 11 11 10 9 9 10 10 10 10 10 9 9 8 9 9 8 8 7 7 5 4 4
3 3 2 3 2 1 1 4 3 4 3 3 4 3 4 5 5 7 8 9 9 11 12 12 12 11 11 11 11 11 11 11 10 10 10 9 8 7 8 8 7 6 5 4
1 4 3 4 3 2 3 5 3 4 4 3 3 3 7 8 11 11 10 9 10 12 13 13 13 11 11 11 10 9 10 10 10 10 10 9 8 8 8 8 8 8 7 5
5 4 3 1 1 1 1 4 6 6 5 5 4 5 7 8 11 10 7 7 10 12 12 12 11 12 11 10 10 9 9 9 9 10 10 9 9 8 8 7 9 9 7 6
3 5 4 2 1 2 2 3 4 2 1 4 5 8 10 10 8 6 5 6 9 11 11 11 11 12 11 12 11 10 10 10 9 10 10 10 9 9 8 8 10 9 8 8
6 5 5 2 1 1 2 7 8 2 2 3 6 8 10 10 8 7 8 12 14 13 11 11 11 10 10 11 9 9 10 10 11 11 10 10 9 10 10 10 9 8 8 9
7 6 5 2 1 2 4 10 7 1 4 8 7 8 9 7 9 11 13 14 13 13 14 13 12 10 10 11 9 10 10 11 11 11 10 10 9 9 10 9 8 8 9 9
3 4 4 3 3 3 7 6 4 4 6 7 8 9 10 11 13 13 13 13 13 13 13 12 11 11 11 10 10 11 12 12 11 11 11 11 10 9 9 8 8 8 10 11
4 2 1 2 1 2 2 2 4 5 7 8 8 11 12 12 13 14 13 12 13 13 13 11 11 12 12 11 10 12 13 12 11 11 11 11 11 9 8 8 8 7 9 10
4 3 2 2 1 4 5 5 5 6 7 10 11 12 12 13 14 15 13 12 12 13 13 12 12 13 13 12 12 12 13 12 11 12 12 10 10 10 8 7 6 6 8 9
3 3 2 1 4 6 5 6 7 8 10 11 12 12 12 13 15 15 14 13 13 13 12 11 12 14 15 13 12 13 12 11 11 11 11 10 9 9 9 8 7 7 8 10
1 1 1 3 5 5 8 9 9 10 11 13 14 13 13 14 16 17 15 14 13 14 13 13 14 14 15 13 13 13 11 10 10 10 10 8 8 8 8 8 8 9 10 13
Wind_Direction
18 48 268 237 203 199 188 266 290 287 316 51 50 21 2 18 58 86 116 130 127 123 59 76 118 126 132 143 150 158 167 180 167 165 192 214 237 243 244 244 250 257 261 262
15 307 250 222 192 190 178 233 285 301 352 60 52 18 352 16 6 341 152 142 151 140 118 113 123 128 147 156 157 160 174 180 181 183 191 210 237 257 255 269 284 283 284 279
231 262 279 136 128 135 185 186 229 284 356 29 41 357 345 344 1 19 71 146 168 180 185 191 186 178 174 177 179 177 181 182 185 186 155 331 331 319 316 318 313 317 314 305
280 279 323 85 151 147 232 238 211 156 58 341 33 318 302 326 336 335 292 209 206 210 207 212 211 206 204 204 192 182 178 177 177 166 174 194 220 254 265 283 294 308 311 312
308 313 349 14 279 184 197 53 69 60 106 41 27 91 291 330 314 278 255 235 229 227 222 225 225 223 222 209 193 185 172 174 176 173 182 194 230 244 280 297 305 310 314 315
281 306 302 272 27 53 99 66 50 45 63 51 323 151 282 272 255 268 256 245 244 243 245 248 251 247 244 225 206 193 186 202 202 197 198 206 231 255 284 301 307 309 309 310
339 337 336 13 34 16 65 71 24 4 12 269 282 209 254 276 279 263 263 265 263 263 266 272 270 258 251 239 228 214 206 220 218 215 220 222 230 238 254 275 285 297 305 305
343 314 308 344 173 224 101 130 151 204 230 277 319 237 255 317 330 330 323 328 342 337 328 312 299 284 267 254 244 233 227 231 223 221 228 227 227 230 245 257 267 278 284 289
197 266 292 334 322 146 142 146 160 138 175 268 286 293 313 355 2 2 3 11 5 355 352 349 346 336 311 286 263 246 240 243 235 228 229 230 228 230 241 251 259 270 277 289
174 240 299 325 26 31 101 139 98 113 156 255 288 299 310 336 342 352 6 8 2 5 7 4 358 351 341 326 317 300 260 249 246 239 234 233 230 231 237 242 254 264 277 290
143 170 308 356 20 333 31 78 94 109 153 168 253 275 359 333 334 346 359 4 2 5 2 359 357 355 354 354 353 342 321 295 278 259 245 238 237 231 232 239 248 255 270 289
117 119 285 289 280 261 250 146 140 133 252 188 201 255 13 26 10 11 8 7 10 11 7 5 3 3 4 0 353 344 333 316 296 278 257 244 240 233 233 241 245 247 263 284
139 107 33 345 339 342 34 142 142 129 133 171 190 238 40 21 16 9 5 0 2 7 8 8 7 4 358 353 348 342 334 321 315 303 277 256 242 234 234 237 239 239 251 279
116 121 163 209 231 248 290 302 149 140 181 221 217 193 359 359 357 350 350 348 354 1 2 2 357 352 348 344 341 338 334 327 321 313 292 268 250 237 233 232 230 229 234 255
110 169 216 237 249 223 269 319 355 173 214 209 208 120 8 342 336 332 335 343 357 1 358 354 347 341 338 339 337 335 329 327 323 315 300 280 264 246 234 228 225 222 224 235
86 174 193 282 276 181 63 15 35 41 30 72 94 76 354 332 336 339 342 347 350 350 344 339 336 334 331 327 325 326 324 323 321 315 306 296 277 253 238 229 220 216 217 222
102 137 135 268 295 87 16 357 63 64 25 41 58 359 341 343 341 332 328 334 336 335 332 326 323 318 313 309 305 306 310 315 318 315 312 309 294 268 249 234 219 216 210 205
136 122 138 259 27 219 84 48 83 95 61 42 30 346 339 325 312 300 299 319 323 321 316 311 307 305 302 298 297 295 300 307 312 314 314 315 306 286 265 241 227 219 204 200
117 126 106 98 128 130 109 34 10 329 89 35 351 332 326 320 307 291 294 310 305 301 297 294 292 293 294 294 296 300 301 303 306 307 309 309 306 296 279 253 238 221 204 200
47 69 91 81 352 317 2 326 322 266 179 16 331 320 322 330 322 299 307 310 306 303 300 298 296 295 294 293 293 293 294 297 297 298 299 301 300 295 286 267 248 224 207 204
9 21 50 50 13 67 333 317 335 6 309 315 310 306 307 297 275 284 296 299 296 297 299 299 300 297 291 292 293 288 288 285 285 289 292 294 293 291 287 279 258 228 210 200
30 28 21 18 10 354 343 9 36 281 283 291 296 294 292 287 287 292 296 297 297 297 295 296 296 294 293 293 291 288 285 283 286 288 288 287 288 289 294 284 271 238 211 199
51 32 25 58 79 261 296 265 256 263 284 287 286 289 292 293 293 294 292 291 292 290 290 289 287 289 289 286 283 283 283 284 287 287 283 282 284 283 281 278 274 254 216 200
12 358 84 69 345 288 289 281 281 281 277 283 286 289 290 289 290 290 289 289 287 285 285 285 285 286 287 283 280 276 280 284 285 286 283 280 279 281 278 271 264 253 225 201
332 360 62 8 288 303 296 287 289 296 298 298 297 295 290 289 291 290 291 289 288 287 285 281 281 282 282 281 278 278 279 280 283 285 284 281 275 274 277 272 258 251 233 210
280 155 152 241 251 254 274 282 292 294 293 294 296 294 288 286 288 290 290 288 288 288 286 286 284 282 282 281 279 278 276 274 277 283 284 279 275 272 271 277 277 256 239 221